Location: Observatoire
(46.1952°N, 5.3391°E)
Time: 15:47:54
(UTC+01:00)

Courier 1B - Pass Details

Date: 16 February 2026
Orbit: 962 x 1208 km, 28.3° (Epoch: 5 March)

Event Time Altitude Azimuth Distance (km) Brightness Sun altitude
Rises 21:40:14 0° 228° (SW) 3,981 11.0 -37.1°
Reaches altitude 10° 21:43:59 10° 211° (SSW) 3,061 10.1 -37.7°
Enters shadow 21:44:07 10° 210° (SSW) 3,033 10.1 -37.7°
